Location: *
(10.4611°S, 112.9286°E)
Time: 02:49:07
(UTC+00:00)

Daily predictions for brighter satellites

Satellite Brightness Start Highest point End
(mag) Time Altitude Azimuth Time Altitude Azimuth Time Altitude Azimuth
CZ-4B R/B 3.1 10:29:42 10° S 10:33:40 78° WSW 10:37:49 10° NNW
Cosmos 968 Rocket 3.6 10:31:41 10° SSW 10:36:56 87° WNW 10:42:06 10° NNE
Cosmos 1862 4.4 10:38:24 10° NNW 10:42:11 47° W 10:45:59 10° S
Yuri Rocket 4.4 10:39:47 10° W 10:44:23 41° SSW 10:50:26 10° SE
ARGOS 3.3 10:41:22 10° SSE 10:46:37 55° ENE 10:51:49 10° N
Cosmos 1766 Rocket 3.5 10:42:29 10° N 10:46:48 76° E 10:51:08 10° S
Cosmos 1802 Rocket 4.1 10:40:28 10° S 10:46:57 86° E 10:53:21 10° N
Cosmos 1459 Rocket 4.4 10:40:47 10° S 10:47:01 72° W 10:53:18 10° N
Ariane H10+ 2.2 10:45:08 10° WNW 10:47:34 23° NNW 10:49:16 10° NE
RESURS DK-1 3.7 10:45:21 10° SSE 10:48:19 19° ESE 10:51:17 10° ENE
Okean 3 Rocket 3.7 10:44:18 10° N 10:48:45 61° E 10:53:15 10° SSE
Palapa 6 Rocket 3.4 10:44:39 10° WSW 10:49:21 62° NNW 10:53:18 10° ENE
GPS 2-12 Rocket1 3.3 10:45:57 10° WSW 10:50:38 55° SSE 10:54:54 12° E
BREEZE-M DEB (TANK) 3.2 10:48:02 10° NNW 10:54:17 38° NE 10:56:13 17° ESE
Cosmos 1980 Rocket 2.5 10:50:54 10° S 10:56:11 43° ESE 11:01:28 10° NE
USA 281 4.1 10:50:08 10° S 10:56:27 50° WSW 11:02:44 10° NW
IRIDIUM 104 4.3 10:51:51 10° N 10:56:58 62° E 11:02:09 10° S
Meteor 2-6 Rocket 4.4 10:52:56 10° SSE 10:58:07 44° E 11:03:12 10° NNE
ATLAS 2AS CENTAUR R/B 3.0 10:54:08 10° SSW 11:01:41 87° ESE 11:09:29 10° NNE
PSLV R/B 3.9 11:00:45 10° SSE 11:04:47 62° E 11:08:45 10° N
Okean O Rocket 2.9 11:04:11 18° E 11:05:19 20° E 11:08:30 10° NNE
IRIDIUM 114 4.3 11:00:53 10° N 11:06:05 81° E 11:11:21 10° S
Aureole 1 Rocket 3.1 11:00:50 10° S 11:06:11 66° ESE 11:10:11 10° NNE
Cosmos 1763 Rocket 3.8 11:03:19 10° N 11:08:23 47° E 11:12:45 14° SSE
SL-27 R/B 4.4 11:06:32 10° NE 11:07:26 13° ENE 11:07:26 13° ENE
ATLAS 2A CENTAUR R/B 4.4 11:00:35 10° WSW 11:08:37 36° NW 11:11:28 10° NNE
H-2A R/B 3.7 11:06:31 10° SSW 11:10:52 32° WSW 11:15:15 10° NW
Landsat 5 4.1 11:06:36 10° N 11:11:02 64° WNW 11:15:27 10° SSW
Cosmos 2369 3.6 11:06:36 10° SSW 11:12:16 80° ESE 11:17:53 10° NNE
Cosmos 1697 Rocket 3.8 11:08:18 10° SSW 11:13:42 47° WNW 11:19:05 10° N
IRIDIUM 103 4.5 11:10:01 10° N 11:15:14 79° W 11:20:28 10° S
Cosmos 1602 4.0 11:12:54 10° NNE 11:16:30 44° E 11:18:12 26° SE
Tiangong 2.1 11:19:56 10° WNW 11:22:57 40° SW 11:24:01 29° S
BREEZE-M DEB (TANK) 4.3 11:21:05 10° N 11:23:57 27° ENE 11:24:45 26° E
NOSS 2-1 (E) 3.9 11:17:38 10° SSW 11:24:11 74° ESE 11:28:42 10° NNE
MOS 1-B 4.3 11:18:26 10° SSE 11:24:12 68° ENE 11:29:57 10° N
Cosmos 1500 3.1 11:28:44 10° N 11:32:25 58° E 11:32:44 56° ESE
CZ-4 R/B 3.0 11:34:25 20° NE 11:34:25 20° NE 11:36:09 10° NNE
CZ-4B R/B 3.0 11:31:46 20° SSE 11:35:28 71° ENE 11:40:45 10° N
USA 276 4.2 11:36:02 10° N 11:37:00 17° N 11:37:00 17° N
Cosmos 1328 Rocket 3.3 11:40:24 23° S 11:43:03 81° E 11:47:20 10° N
Cosmos 1408 Rocket 4.4 11:39:48 10° NNW 11:43:55 47° W 11:47:58 11° SSW
ARIANE 5 R/B 4.1 11:41:13 10° WNW 11:45:02 50° N 11:50:35 23° ENE
FALCON 9 R/B 1.5 11:40:36 10° WNW 11:45:55 41° SW 11:45:55 41° SW
deb Ariane 3.7 11:45:55 10° WNW 11:47:46 30° NNW 11:47:46 30° NNW
Cosmos 540 Rocket 3.3 11:46:47 10° N 11:51:56 79° E 11:52:51 60° SSE
